Change the Weather History Date:

Sunday, April 17, 2011

  Actual Average Record
Temperature  
Mean Temperature 56 °F 61 °F  
Max Temperature 73 °F 73 °F 92 °F (2006)
Min Temperature 39 °F 49 °F 25 °F (1905)
Degree Days  
Heating Degree Days 9 5  
Month to date heating degree days 88 119  
Since 1 July heating degree days 3095 2952  
Cooling Degree Days 0 1  
Month to date cooling degree days 20 17  
Year to date cooling degree days 36 25  
Growing Degree Days 7 (Base 50)    
Moisture  
Dew Point 36 °F    
Average Humidity 58    
Maximum Humidity 89    
Minimum Humidity 26    
Precipitation  
Precipitation 0.00 in 0.10 in 1.58 in (1945)
Month to date precipitation 2.78 1.90  
Year to date precipitation 16.26 14.21  
Snow  
Snow 0.00 in 0.00 in T in (2001)
Month to date snowfall T 0.0  
Since 1 July snowfall 8.8 4.7  
Snow Depth 0.00 in    
Sea Level Pressure  
Sea Level Pressure 29.97 in    
Wind  
Wind Speed 5 mph (WSW)    
Max Wind Speed 13 mph    
Max Gust Speed 20 mph    
Visibility 10 miles    
Events      
T = Trace of Precipitation, MM = Missing Value Source: NWS Daily Summary

Daily Weather History Graph

Daily Weather History Graph

Search for Another Location

Airport or City:

Trip Planner

Search our weather history database for the weather conditions in past years. The results will help you decide how hot, cold, wet, or windy it might be!

Date:

Astronomy

Apr. 17, 2011 Rise Set
Actual Time 6:54 AM EDT 8:02 PM EDT
Civil Twilight 6:28 AM EDT 8:28 PM EDT
Nautical Twilight 5:57 AM EDT 8:59 PM EDT
Astronomical Twilight 5:25 AM EDT 9:32 PM EDT
Moon 7:56 PM EDT (4/17) 6:11 AM EDT (4/17)
Length of Visible Light 14h 00m
Length of Day
13h 07m
Full, 100% of the Moon is Illuminated
Apr 17
Full
Apr 17
Full
Apr 24
Last Quarter
May 3
New
May 10
First Quarter

Hourly Weather History & Observations

Time (EDT) Temp. Windchill Dew Point Humidity Pressure Visibility Wind Dir Wind Speed Gust Speed Precip Events Conditions
12:53 AM 48.0 °F - 37.9 °F 68% 29.86 in 10.0 mi West 4.6 mph - N/A   Clear
1:53 AM 46.0 °F 43.1 °F 39.0 °F 76% 29.87 in 10.0 mi WSW 5.8 mph - N/A   Clear
2:53 AM 44.1 °F 40.1 °F 39.0 °F 82% 29.86 in 10.0 mi NE 6.9 mph - N/A   Clear
3:53 AM 43.0 °F 41.3 °F 39.0 °F 86% 29.88 in 10.0 mi NNW 3.5 mph - N/A   Clear
4:53 AM 43.0 °F 39.5 °F 36.0 °F 76% 29.91 in 10.0 mi NNW 5.8 mph - N/A   Clear
5:53 AM 42.1 °F 39.2 °F 37.9 °F 85% 29.92 in 10.0 mi NNW 4.6 mph - N/A   Clear
6:53 AM 43.0 °F 41.3 °F 34.0 °F 71% 29.94 in 10.0 mi NNE 3.5 mph - N/A   Clear
7:53 AM 45.0 °F 41.8 °F 36.0 °F 71% 29.98 in 10.0 mi North 5.8 mph - N/A   Clear
8:53 AM 50.0 °F - 33.1 °F 52% 30.01 in 10.0 mi NNW 5.8 mph - N/A   Clear
9:53 AM 54.0 °F - 32.0 °F 43% 30.02 in 10.0 mi Variable 5.8 mph - N/A   Clear
10:53 AM 57.9 °F - 32.0 °F 37% 30.04 in 10.0 mi Variable 4.6 mph - N/A   Clear
11:53 AM 62.1 °F - 33.1 °F 34% 30.03 in 10.0 mi Calm Calm - N/A   Clear
12:53 PM 64.9 °F - 32.0 °F 29% 30.02 in 10.0 mi Variable 3.5 mph - N/A   Clear
1:53 PM 68.0 °F - 35.1 °F 30% 30.01 in 10.0 mi SW 8.1 mph - N/A   Clear
2:53 PM 69.1 °F - 34.0 °F 27% 30.00 in 10.0 mi SW 6.9 mph - N/A   Clear
3:53 PM 70.0 °F - 35.1 °F 28% 29.98 in 10.0 mi Variable 3.5 mph - N/A   Clear
4:53 PM 72.0 °F - 37.9 °F 29% 29.96 in 10.0 mi SSW 4.6 mph - N/A   Clear
5:53 PM 72.0 °F - 37.0 °F 28% 29.96 in 10.0 mi SW 8.1 mph - N/A   Clear
6:53 PM 69.1 °F - 37.0 °F 31% 29.95 in 10.0 mi SSW 11.5 mph - N/A   Clear
7:53 PM 64.9 °F - 37.9 °F 37% 29.98 in 10.0 mi SW 6.9 mph - N/A   Clear
8:53 PM 61.0 °F - 39.0 °F 44% 30.00 in 10.0 mi WSW 4.6 mph - N/A   Clear
9:53 PM 59.0 °F - 39.0 °F 48% 30.02 in 10.0 mi SSW 4.6 mph - N/A   Clear
10:53 PM 57.0 °F - 37.9 °F 49% 30.02 in 10.0 mi SSW 4.6 mph - N/A   Clear
11:53 PM 55.9 °F - 39.0 °F 53% 30.01 in 10.0 mi SSW 4.6 mph - N/A   Clear